www.pogodaiklimat.ru

Погода и климат >> Архив погоды >> Россия >> Новгородская область >> Валдай


ПОГОДА в Валдае

  • Прогноз погоды в Валдае
  • Монитор погоды в Валдае
  • Климат города

АРХИВ ПОГОДЫ в Валдае

Время (UTC), дата Ветер
(напр.,м/с)
 
Видим.   Явления Облачность Т
(С)
Тd
(С)
f
(%)
Тe
(С)
Тes
(С)
Комфортность P
(гПа)
Po
(гПа)
Тmin
(С)
Tmax
(С)
R
(мм)
R24
(мм)
S
(см)
15 10.07 СЗ 1 20 км 10/10 500 м
[Cb cap]
+16.9 +14.1 84 +18 +18 1018.1 994.5
18 10.07 З 2 9000 м слабый ливневой дождь 10/10 500 м
[Cb cap]
+16.3 +14.6 90 +16 +16 1018.6 994.9 +17.7
21 10.07 СЗ 2 10 км слабая морось {ливн. осадки} 10/10 270 м
[St]
+15.1 +13.9 93 +15 +15 1019.1 995.3
00 11.07 З 1 20 км {ливн. осадки, морось} 10/10 600 м
[Sc]
+14.7 +13.1 90 +15 +15 1019.1 995.2
03 11.07 ЮЗ 1 20 км 9/9 600 м
[Sc]
+14.6 +13.5 93 +15 +15 1018.8 994.9 +14.3 0.1
06 11.07 З 1 20 км 9/9 600 м
[Sc]
+17.2 +14.8 86 +18 +19 1018.9 995.3 +14.3 0.1
09 11.07 ЮЗ 1 20 км 9/9 600 м
[Sc]
+20.3 +16.3 78 +24 +26 комфорт 1018.3 994.9
12 11.07 З 2 20 км {ливн. осадки} 9/6 600 м
[Cb cap Ac trans Ci sp]
+20.8 +16.8 78 +25 +28 комфорт 1017.5 994.2
15 11.07 ЮВ 1 20 км 9/9 600 м
[Cb cap Ac trans Ci fib]
+21.0 +16.8 77 +26 +26 душно 1017.3 994.0 0.8
18 11.07 СЗ 1 20 км 9/8 600 м
[Sc Ac und Ci fib]
+20.1 +16.6 80 +24 +24 комфорт 1017.6 994.2 +23.7 0.8
21 11.07 штиль 0 20 км 9/4 600 м
[Sc Ac und Ci fib]
+17.1 +15.9 93 +17 +17 1017.9 994.3
00 12.07 штиль 0 20 км туман поземный 9/5 600 м
[Sc Ac und Ci fib]
+16.1 +15.3 95 +16 +16 1017.7 994.0
03 12.07 штиль 0 20 км 9/4 600 м
[Sc Ac und Cc]
+18.1 +16.6 91 +18 +19 1017.8 994.3 +15.7
06 12.07 В 1 20 км 9/8 600 м
[Sc Ac und Ci fib]
+22.4 +16.8 71 +27 +28 душно 1017.4 994.2 +15.7
09 12.07 С 2 20 км 8/8 600 м
[Cb cap]
+25.3 +13.4 48 +27 +30 жарко 1016.5 993.5
12 12.07 В 1 20 км 8/8 600 м
[Cb cap]
+25.9 +13.9 47 +28 +31 жарко 1015.6 992.7
15 12.07 СЗ 1 20 км 8/6 600 м
[Cu Sc Ci fib]
+26.5 +11.8 40 +28 +29 жарко 1014.4 991.6
18 12.07 З 1 20 км 9/5 600 м
[Cb cap Ci fib]
+20.3 +14.4 69 +24 +24 комфорт 1015.2 991.9 +26.6
21 12.07 штиль 0 20 км 9/3 600 м
[Sc Ac und Ci sp]
+16.2 +14.6 90 +16 +16 1015.6 992.0
00 13.07 штиль 0 4000 м дымка 1/0
[Ac trans]
+13.9 +13.1 95 +13 +13 1015.5 991.7
03 13.07 штиль 0 20 км ясно +16.9 +15.1 89 +17 +18 1014.9 991.3 +13.2
06 13.07 В 1 20 км ясно +22.9 +14.6 59 +27 +35 душно 1014.0 990.9 +13.2
09 13.07 СВ 1 20 км 6/6 600 м
[Cu med, cong]
+25.1 +13.7 49 +27 +34 жарко 1013.4 990.5
12 13.07 СВ 2 20 км 8/8 600 м
[Cb cap Ci sp]
+26.1 +12.3 42 +28 +30 жарко 1012.0 989.2
15 13.07 СВ 1 20 км в посл. час ливневой дождь 9/5 600 м
[Cb cap Ac trans Ci sp]
+23.3 +15.0 60 +27 +29 душно 1011.6 988.6
18 13.07 СВ 2 20 км {ливн. осадки} 3/3 600 м
[Sc]
+21.8 +13.5 59 +25 +25 комфорт 1011.5 988.4 +26.2
21 13.07 штиль 0 20 км 8/4 600 м
[Sc Ac und]
+15.8 +14.0 89 +16 +16 1011.9 988.3
00 14.07 СЗ 1 20 км 8/3 600 м
[Sc Ac trans Ci fib]
+14.8 +13.8 94 +15 +15 1011.6 988.0
03 14.07 С 1 20 км 9/9 600 м
[Sc]
+16.6 +14.5 87 +17 +18 1010.9 987.4 +14.4
06 14.07 СВ 2 20 км 8/6 600 м
[Sc Ci fib]
+20.0 +15.9 77 +23 +26 комфорт 1010.5 987.3 +14.4
09 14.07 СВ 2 20 км слабый ливневой дождь 9/9 600 м
[Cb cap]
+21.1 +15.4 70 +24 +26 комфорт 1010.1 987.0
12 14.07 В 1 20 км {ливн. осадки} 9/8 600 м
[Cb cap Ci fib]
+22.6 +15.5 64 +27 +29 душно 1008.9 985.9
15 14.07 В 1 20 км 6/5 600 м
[Cu Sc Ci fib]
+23.8 +15.3 59 +27 +29 жарко 1008.1 985.3
18 14.07 штиль 0 20 км 5/3 600 м
[Sc Ac trans Ci fib]
+20.6 +15.5 73 +23 +23 комфорт 1008.7 985.6 +24.2
21 14.07 С 1 20 км 3/0
[Ac trans Ci fib]
+17.3 +15.7 90 +18 +18 1009.3 985.9
00 15.07 СВ 1 20 км 9/8 600 м
[Sc Ac trans Ci fib]
+16.5 +15.5 94 +17 +17 1009.9 986.4
03 15.07 В 1 20 км 9/8 240 м
[St Ac As]
+17.3 +16.4 94 +18 +18 1010.3 986.9 +15.7
06 15.07 В 1 20 км дымка 9/5 600 м
[Cu Sc Ci sp]
+20.1 +17.2 83 +24 +28 комфорт 1010.8 987.6 +15.7
09 15.07 С 1 9000 м слабый ливневой дождь 9/9 600 м
[Cb cap Ci fib]
+22.2 +18.5 80 +27 +29 душно 1010.7 987.7
12 15.07 СВ 1 20 км {гроза, ливн. осадки} 9/4 600 м
[Cb cap Ac trans Ci fib]
+24.3 +16.7 63 +28 +33 душно 1010.1 987.2
15 15.07 СЗ 2 20 км 9/3 600 м
[Cb cap As trans Cs]
+25.6 +16.0 55 +29 +30 душно 1010.0 987.2 0.4
18 15.07 СЗ 1 20 км 9/1 600 м
[Sc As trans Cs]
+21.7 +17.4 77 +26 +26 душно 1011.2 988.1 +26.3 0.4
21 15.07 штиль 0 20 км 9/0
[Ci fib]
+17.4 +16.2 93 +17 +17 1011.9 988.4
00 16.07 штиль 0 20 км 8/0
[Ci fib]
+16.4 +15.1 92 +16 +16 1012.8 989.2
03 16.07 СЗ 1 20 км 9/0
[Cs]
+18.6 +15.7 83 +21 +21 комфорт 1013.0 989.6 +15.9
06 16.07 СВ 2 20 км 3/0
[Cs]
+24.1 +16.7 63 +28 +35 душно 1013.0 990.0 +15.9
09 16.07 СВ 3 20 км 8/6 600 м
[Cu med, cong Ci fib]
+26.7 +16.4 53 +30 +34 душно 1012.3 989.5
12 16.07 СВ 2 20 км 6/4 600 м
[Cb cap Ci fib]
+27.8 +14.1 43 +30 +36 жарко 1011.7 989.0
15 16.07 СВ 3 20 км 8/3 600 м
[Cu Sc Ci fib]
+27.3 +14.4 45 +30 +31 душно 1011.0 988.3
18 16.07 С 1 20 км 8/1 600 м
[Sc Cs]
+24.4 +14.9 55 +27 +27 жарко 1011.9 989.0 +28.6
21 16.07 СВ 2 20 км 9/0
[Cs]
+22.2 +15.0 64 +26 +26 душно 1012.4 989.3
00 17.07 С 2 20 км 6/0
[Ci fib]
+19.1 +14.6 75 +21 +21 комфорт 1012.9 989.5
03 17.07 СВ 2 20 км 3/0
[Ci fib]
+20.0 +14.6 71 +23 +24 комфорт 1012.9 989.6 +18.7
06 17.07 СВ 3 20 км 3/0
[Ci fib]
+24.0 +15.9 61 +27 +33 жарко 1012.3 989.4 +18.7
09 17.07 СВ 4
{11}
20 км 4/4 600 м
[Cu hum]
+26.3 +13.0 44 +28 +34 жарко 1011.7 989.0

 

Местоположение метеостанции Валдай (Новгородская область, Россия): широта 57.99 долгота 33.25 высота над уровнем моря 195 м.

В архиве по умолчанию представлена погода в Валдае за последнюю неделю. Архивные данные за месяц целиком и за предыдущие месяцы, начиная с января 2011 года, Вы можете получить, выбрав интересующий диапазон дат из раскрывающегося списка и нажав кнопку "Ввод!".


*Определитесь, кто Вы:
робот инопланетянин человек

Внимание! Время в таблицах - всемирное. Для получения местного времени необходимо прибавить поправку, которая в Валдае равна 3 ч.

Смотрите также архив погоды в соседних городах и на ближайших метеорологических станциях:

Погода в Бологом (Тверская область, Россия) (48 км)
Погода в Крестцах (Новгородская область, Россия) (53 км)
Погода в Демянске (Новгородская область, Россия) (60 км)
Погода в Боровичах (Новгородская область, Россия) (61 км)
Погода в Вышнем Волочке (Тверская область, Россия) (93 км)
Погода в Осташкове (Тверская область, Россия) (98 км)
Погода в Удомле (Тверская область, Россия) (105 км)
Погода в Охонах (Новгородская область, Россия) (110 км)
Погода в Старой Руссе (Новгородская область, Россия) (114 км)
Погода в Великом Новгороде (Новгородская область, Россия) (131 км)

Пояснения к столбцам:

Ветер - указаны скорость ветра в м/с - средняя за 10 мин, порывы в срок и между сроками (в фигурных скобках) и направление, откуда дует ветер: С - северный, СВ - северо-восточный, В - восточный, ЮВ - юго-восточный, Ю - южный, ЮЗ - юго-западный, З - западный, СЗ - северо-западный.
Видимость - горизонтальная дальность видимости в метрах или километрах. При видимости от 1 до 10 км при отсутствии осадков обычно наблюдается дымка, при ухудшении видимости до 1 км и менее - туман. В сухую погоду видимость может ухудшаться дымом, пылью или мглою.
Явления - указаны атмосферные явления, наблюдавшиеся в срок или в последний час перед сроком; фигурными скобками обозначены явления, наблюдавшиеся между сроками (за 1-3 часа до срока); квадратными скобками обозначены град или гололедные отложения с указанием их диаметра в мм.
Облачность - указаны через наклонную черту общая и нижняя облачность в баллах и высота нижней границы облаков в метрах; квадратными скобками обозначены формы облаков: Ci - перистые, Cs - перисто-слоистые, Cc - перисто-кучевые, Ac - высококучевые, As - высокослоистые, Sc - слоисто-кучевые, Ns - слоисто-дождевые, Cu - кучевые, Cb - кучево-дождевые. Подробнее классификацию облаков см. в Атласе облаков (PDF).
T - Температура воздуха - температура, измеренная на высоте 2 м над землей.
Td - Температура точки росы - температура, при понижении до которой содержащийся в воздухе водяной пар достигнет насыщения.
f - Относительная влажность воздуха - влажноcть воздуха, измеренная на высоте 2 м над землей.
Te - Эффективная температура - температура, которую ощущает одетый по сезону человек в тени. Характеристика душности погоды. При расчете учитывается влияние влажности воздуха и скорости ветра на теплоощущения человека.
Tes - Эффективная температура на солнце - температура, которую ощущает человек, с поправкой на солнечный нагрев. Характеристика знойности погоды. Зависит от высоты солнца над горизонтом, облачности и скорости ветра. Ночью, в пасмурную погоду, а также при ветре 12 м/с и более поправка равна нулю.
P - Атмосферное давление - приведенное к уровню моря атмосферное давление.
Po - Атмосферное давление - измеренное на уровне метеостанции атмосферное давление.
Tmin - Минимальная температура - минимум температуры воздуха на высоте 2 м над землей.
Tmax - Максимальная температура - максимум температуры воздуха на высоте 2 м над землей.
R - Количество осадков - Количество выпавших осадков за период времени, мм. При наведении курсора мыши на число - период времени, за который выпало указанное количество осадков.
R24 - Количество осадков - Количество выпавших осадков за 24 часа, мм.
S - Снежный покров - Высота снежного покрова, см. При наведении курсора мыши на число - состояние снежного покрова и степень покрытия местности в баллах.